Location: Mexico
(19.4000°N, 99.1500°W)
Time: 23:41:55
(UTC-06:00)

ISS - Pass Details

Date: 20 May 2019
Orbit: 407 x 410 km, 51.6° (Epoch: 23 May)

Event Time Altitude Azimuth Distance (km) Brightness Sun altitude
Rises 04:16:52 0° 335° (NNW) 2,327 0.1 -22.5°
Reaches altitude 10° 04:19:09 10° 348° (NNW) 1,465 -0.8 -22.1°
Maximum altitude 04:22:00 27° 48° (NE) 816 -1.6 -21.5°
Drops below altitude 10° 04:24:52 10° 109° (ESE) 1,463 -0.5 -20.9°
Sets 04:27:08 0° 121° (ESE) 2,322 0.4 -20.5°
